Tracking 18942 objects as of 17-Jan-2018
HD Live streaming from Space Station
objects crossing your sky now

FENGYUN 1C DEB

Track FENGYUN 1C DEB now!
10-day predictions


NORAD ID: 29811
Int'l Code: 1999-025DD
Perigee: 770.3 km
Apogee: 876.7 km
Inclination: 99.0 °
Period: 101.2 minutes
Semi major axis: 7194 km
RCS: 0.0186 m2 (small)
Launch date: May 10, 1999
Source: People's Republic of China (PRC)
Launch site: Taiyaun Space Center, China (TSC)

Note: This is SATELLITE DEBRIS
aabbcc
Your satellite tracking list
Your tracking list is empty




NASA's NSSDC Master Catalog

Two Line Element Set (TLE):
1 29811U 99025DD  18015.64561747 +.00002024 +00000-0 +89991-3 0  9998
2 29811 099.0227 088.0186 0073950 308.0305 051.4212 14.22661331566625
Source of the keplerian elements: AFSPC